User: anonymous
Location: Charleston
(38.3500°N, 81.6330°W)
Time: 20:13:10
(UTC-04:00)
Language:

Cosmos 1812 Rocket - Orbit

View from above orbital plane
View from above orbital plane
View from above satellite
View from above satellite

Ground track
Ground track

The orbit data is extracted from the following two-line orbital elements,

1 17296U 87003B   14106.87009701  .00000598  00000-0  71172-4 0  6066
2 17296 082.5329 026.7678 0020735 077.1372 348.5307 14.82578128471600
Epoch (UTC): 16 April 2014 20:52:56
Eccentricity: 0.0020735
inclination: 82.5329°
perigee height: 606 km
apogee height: 636 km
right ascension of ascending node: 26.7678°
argument of perigee: 77.1372°
revolutions per day: 14.82578128
mean anomaly at epoch: 348.5307°
orbit number at epoch: 47160

The dashed part of the orbit path shows where the satellite is in the earth's shadow,  

DLR